Location: Saint-Palais-sur-Mer
(45.6429°N, 1.0859°W)
Time: 00:33:56
(UTC+01:00)

ISS - Visible Passes

Search period start: 04 December 2023 00:00
Search period end: 14 December 2023 00:00
Orbit: 415 x 417 km, 51.6° (Epoch: 03 December)

Date Brightness Start Highest point End Pass type
(mag) Time Alt. Az. Time Alt. Az. Time Alt. Az.
04 Dec -2.1 19:04:00 10° WNW 19:07:03 32° SW 19:09:51 11° SSE visible
05 Dec -2.9 18:15:22 10° WNW 18:18:39 53° SW 18:21:55 10° SE visible
06 Dec -0.6 19:04:43 10° WSW 19:06:29 14° SW 19:08:14 10° SSW visible
07 Dec -1.0 18:15:32 10° W 18:18:12 22° SW 18:20:50 10° S visible
